Time,TemperatureF,DewpointF,PressureIn,WindDirection,WindDirectionDegrees,WindSpeedMPH,WindSpeedGustMPH,Humidity,HourlyPrecipIn,Conditions,Clouds,dailyrainin,SoftwareType,DateUTC
2013-03-31 00:00:00,40.3,31.3,30.16,SSE,166,1.0,4.0,70,0.00,CLR,,0.00,WeatherDisplay:10.37,2013-03-31 04:00:00,
2013-03-31 00:15:00,40.6,33.0,30.16,SSE,152,2.0,6.0,74,0.00,CLR,,0.00,WeatherDisplay:10.37,2013-03-31 04:15:00,
2013-03-31 00:30:00,40.3,33.0,30.16,SSE,161,3.0,6.0,75,0.00,CLR,,0.00,WeatherDisplay:10.37,2013-03-31 04:30:00,
2013-03-31 00:45:00,39.9,33.3,30.16,South,180,1.0,3.0,77,0.00,CLR,,0.00,WeatherDisplay:10.37,2013-03-31 04:45:00,
2013-03-31 01:00:00,39.4,33.1,30.16,South,179,0.0,1.0,78,0.00,CLR,,0.00,WeatherDisplay:10.37,2013-03-31 05:00:00,
2013-03-31 01:15:00,38.5,32.8,30.16,SW,222,0.0,1.0,80,0.00,CLR,,0.00,WeatherDisplay:10.37,2013-03-31 05:15:00,
2013-03-31 01:30:00,37.6,32.0,30.16,South,169,0.0,0.0,80,0.00,CLR,,0.00,WeatherDisplay:10.37,2013-03-31 05:30:00,
2013-03-31 01:45:00,37.2,32.5,30.16,SSE,168,0.0,0.0,83,0.00,CLR,,0.00,WeatherDisplay:10.37,2013-03-31 05:45:00,
2013-03-31 02:00:00,37.4,33.0,30.16,South,177,0.0,0.0,84,0.00,CLR,,0.00,WeatherDisplay:10.37,2013-03-31 06:00:00,
2013-03-31 02:15:00,36.7,32.6,30.16,WSW,255,0.0,0.0,85,0.00,CLR,,0.00,WeatherDisplay:10.37,2013-03-31 06:15:00,
2013-03-31 02:30:00,36.7,32.9,30.13,WSW,255,0.0,0.0,86,0.00,CLR,,0.00,WeatherDisplay:10.37,2013-03-31 06:30:00,
2013-03-31 02:45:00,36.9,33.6,30.13,SSW,192,0.0,0.0,88,0.00,CLR,,0.00,WeatherDisplay:10.37,2013-03-31 06:45:00,
2013-03-31 03:00:00,36.3,33.1,30.13,South,186,0.0,0.0,88,0.00,CLR,,0.00,WeatherDisplay:10.37,2013-03-31 07:00:00,
2013-03-31 03:15:00,36.3,33.4,30.13,South,170,0.0,0.0,89,0.00,CLR,,0.00,WeatherDisplay:10.37,2013-03-31 07:15:00,
2013-03-31 03:30:00,36.1,33.2,30.13,South,170,0.0,0.0,89,0.00,CLR,,0.00,WeatherDisplay:10.37,2013-03-31 07:30:00,
2013-03-31 03:45:00,36.3,33.7,30.13,SSE,165,0.0,0.0,90,0.00,CLR,,0.00,WeatherDisplay:10.37,2013-03-31 07:45:00,
2013-03-31 04:00:00,36.3,33.9,30.13,East,90,0.0,0.0,91,0.00,CLR,,0.00,WeatherDisplay:10.37,2013-03-31 08:00:00,
2013-03-31 04:15:00,36.0,33.6,30.13,East,90,0.0,0.0,91,0.00,CLR,,0.00,WeatherDisplay:10.37,2013-03-31 08:15:00,
2013-03-31 04:30:00,35.6,33.5,30.10,East,90,0.0,0.0,92,0.00,CLR,,0.00,WeatherDisplay:10.37,2013-03-31 08:30:00,
2013-03-31 04:45:00,35.4,33.6,30.10,East,90,0.0,0.0,93,0.00,CLR,,0.00,WeatherDisplay:10.37,2013-03-31 08:45:00,
2013-03-31 05:00:00,35.2,33.4,30.10,East,90,0.0,0.0,93,0.00,CLR,,0.00,WeatherDisplay:10.37,2013-03-31 09:00:00,
2013-03-31 05:15:00,35.6,33.8,30.10,East,90,0.0,0.0,93,0.00,CLR,,0.00,WeatherDisplay:10.37,2013-03-31 09:15:00,
2013-03-31 05:30:00,36.3,35.0,30.10,SSE,150,0.0,1.0,95,0.00,CLR,,0.00,WeatherDisplay:10.37,2013-03-31 09:30:00,
2013-03-31 05:45:00,36.9,35.8,30.10,SSE,149,0.0,1.0,96,0.00,CLR,,0.00,WeatherDisplay:10.37,2013-03-31 09:45:00,
2013-03-31 06:00:00,37.4,36.4,30.10,ESE,113,0.0,0.0,96,0.00,CLR,,0.00,WeatherDisplay:10.37,2013-03-31 10:00:00,
2013-03-31 06:15:00,37.0,36.3,30.10,SE,145,0.0,0.0,97,0.00,CLR,,0.00,WeatherDisplay:10.37,2013-03-31 10:15:00,
2013-03-31 06:30:00,37.0,36.3,30.10,ESE,113,0.0,1.0,97,0.00,CLR,,0.00,WeatherDisplay:10.37,2013-03-31 10:30:00,
2013-03-31 06:45:00,37.2,36.7,30.10,SE,139,0.0,3.0,98,0.00,CLR,,0.00,WeatherDisplay:10.37,2013-03-31 10:45:00,
2013-03-31 07:00:00,37.4,36.6,30.10,SSE,155,1.0,3.0,97,0.00,CLR,,0.00,WeatherDisplay:10.37,2013-03-31 11:00:00,
2013-03-31 07:15:00,38.5,38.2,30.07,ESE,116,0.0,0.0,99,0.00,CLR,,0.00,WeatherDisplay:10.37,2013-03-31 11:15:00,
2013-03-31 07:30:00,40.3,40.0,30.07,ESE,111,0.0,5.0,99,0.00,CLR,,0.00,WeatherDisplay:10.37,2013-03-31 11:30:00,
2013-03-31 07:45:00,41.5,41.5,30.10,ESE,104,1.0,5.0,100,0.00,CLR,,0.00,WeatherDisplay:10.37,2013-03-31 11:45:00,
2013-03-31 08:00:00,44.2,43.2,30.10,SSE,157,2.0,6.0,96,0.00,CLR,,0.00,WeatherDisplay:10.37,2013-03-31 12:00:00,
2013-03-31 08:15:00,45.9,39.4,30.10,SSE,165,5.0,7.0,78,0.00,CLR,,0.00,WeatherDisplay:10.37,2013-03-31 12:15:00,
2013-03-31 08:30:00,47.7,36.9,30.07,SSE,155,6.0,9.0,66,0.00,CLR,,0.00,WeatherDisplay:10.37,2013-03-31 12:30:00,
2013-03-31 08:45:00,49.3,36.0,30.07,SSE,149,7.0,12.0,60,0.00,CLR,,0.00,WeatherDisplay:10.37,2013-03-31 12:45:00,
2013-03-31 09:00:00,49.5,34.8,30.07,SE,141,10.0,14.0,57,0.00,CLR,,0.00,WeatherDisplay:10.37,2013-03-31 13:00:00,
2013-03-31 09:15:00,50.9,33.9,30.07,SE,138,9.0,11.0,52,0.00,CLR,,0.00,WeatherDisplay:10.37,2013-03-31 13:15:00,
2013-03-31 09:30:00,51.3,34.2,30.07,SSE,147,10.0,14.0,52,0.00,CLR,,0.00,WeatherDisplay:10.37,2013-03-31 13:30:00,
2013-03-31 09:45:00,51.8,35.2,30.07,SSE,150,10.0,16.0,53,0.00,CLR,,0.00,WeatherDisplay:10.37,2013-03-31 13:45:00,
2013-03-31 10:00:00,51.8,34.7,30.07,SE,136,9.0,14.0,52,0.00,CLR,,0.00,WeatherDisplay:10.37,2013-03-31 14:00:00,
2013-03-31 10:15:00,52.3,35.2,30.04,SE,124,12.0,15.0,52,0.00,CLR,,0.00,WeatherDisplay:10.37,2013-03-31 14:15:00,
2013-03-31 10:30:00,53.1,35.9,30.04,SE,132,12.0,15.0,52,0.00,CLR,,0.00,WeatherDisplay:10.37,2013-03-31 14:30:00,
2013-03-31 10:45:00,53.4,36.7,30.04,SE,126,13.0,15.0,53,0.00,CLR,,0.00,WeatherDisplay:10.37,2013-03-31 14:45:00,
2013-03-31 11:00:00,54.0,36.7,30.04,SE,124,13.0,15.0,52,0.00,CLR,,0.00,WeatherDisplay:10.37,2013-03-31 15:00:00,
2013-03-31 11:15:00,53.6,35.9,30.04,SE,142,10.0,14.0,51,0.00,CLR,,0.00,WeatherDisplay:10.37,2013-03-31 15:15:00,
2013-03-31 11:30:00,54.1,35.4,30.01,SE,129,13.0,17.0,49,0.00,CLR,,0.00,WeatherDisplay:10.37,2013-03-31 15:30:00,
2013-03-31 11:45:00,53.6,34.9,30.01,SE,128,14.0,18.0,49,0.00,CLR,,0.00,WeatherDisplay:10.37,2013-03-31 15:45:00,
2013-03-31 12:00:00,55.4,34.9,30.01,SE,140,14.0,17.0,46,0.00,CLR,,0.00,WeatherDisplay:10.37,2013-03-31 16:00:00,
2013-03-31 12:15:00,54.0,34.2,30.01,SE,128,15.0,17.0,47,0.00,CLR,,0.00,WeatherDisplay:10.37,2013-03-31 16:15:00,
2013-03-31 12:30:00,55.8,35.3,29.99,ESE,120,16.0,20.0,46,0.00,CLR,,0.00,WeatherDisplay:10.37,2013-03-31 16:30:00,
2013-03-31 12:45:00,56.7,35.5,29.99,SE,137,16.0,21.0,45,0.00,CLR,,0.00,WeatherDisplay:10.37,2013-03-31 16:45:00,
2013-03-31 13:00:00,55.4,35.5,29.99,SE,132,17.0,21.0,47,0.00,CLR,,0.00,WeatherDisplay:10.37,2013-03-31 17:00:00,
2013-03-31 13:15:00,54.3,36.1,29.95,ESE,122,18.0,21.0,50,0.00,CLR,,0.00,WeatherDisplay:10.37,2013-03-31 17:15:00,
2013-03-31 13:30:00,53.4,37.2,29.93,SE,126,14.0,17.0,54,0.00,CLR,,0.00,WeatherDisplay:10.37,2013-03-31 17:30:00,
2013-03-31 13:45:00,52.2,36.9,29.93,ESE,119,15.0,20.0,56,0.00,CLR,,0.00,WeatherDisplay:10.37,2013-03-31 17:45:00,
2013-03-31 14:00:00,50.9,37.9,29.93,SSE,150,16.0,21.0,61,0.00,CLR,,0.00,WeatherDisplay:10.37,2013-03-31 18:00:00,
2013-03-31 14:15:00,49.3,38.4,29.93,SE,128,15.0,18.0,66,0.00,CLR,,0.00,WeatherDisplay:10.37,2013-03-31 18:15:00,
2013-03-31 14:30:00,47.8,40.3,29.90,ESE,114,12.0,13.0,75,0.00,OVC,,0.00,WeatherDisplay:10.37,2013-03-31 18:30:00,
2013-03-31 14:45:00,48.0,41.5,29.90,ESE,121,13.0,17.0,78,0.01,OVC,,0.01,WeatherDisplay:10.37,2013-03-31 18:45:00,
2013-03-31 15:00:00,48.0,42.1,29.87,ESE,106,14.0,20.0,80,0.01,OVC,,0.03,WeatherDisplay:10.37,2013-03-31 19:00:00,
2013-03-31 15:15:00,47.8,42.0,29.87,ESE,110,14.0,20.0,80,0.00,OVC,,0.03,WeatherDisplay:10.37,2013-03-31 19:15:00,
2013-03-31 15:30:00,47.5,42.3,29.84,ESE,106,10.0,17.0,82,0.03,RA,,0.06,WeatherDisplay:10.37,2013-03-31 19:30:00,
2013-03-31 15:45:00,47.8,43.2,29.84,ESE,118,14.0,17.0,84,0.00,OVC,,0.06,WeatherDisplay:10.37,2013-03-31 19:45:00,
2013-03-31 16:00:00,47.5,43.2,29.84,ESE,109,15.0,19.0,85,0.01,RA,,0.07,WeatherDisplay:10.37,2013-03-31 20:00:00,
2013-03-31 16:15:00,47.3,43.6,29.81,SE,126,12.0,17.0,87,0.01,RA,,0.09,WeatherDisplay:10.37,2013-03-31 20:15:00,
2013-03-31 16:30:00,47.5,44.4,29.81,ESE,120,13.0,15.0,89,0.01,OVC,,0.10,WeatherDisplay:10.37,2013-03-31 20:30:00,
2013-03-31 16:45:00,47.3,44.5,29.81,ESE,106,13.0,21.0,90,0.01,OVC,,0.11,WeatherDisplay:10.37,2013-03-31 20:45:00,
2013-03-31 17:00:00,48.2,46.0,29.78,ESE,111,10.0,15.0,92,0.01,RA,,0.13,WeatherDisplay:10.37,2013-03-31 21:00:00,
2013-03-31 17:15:00,48.6,46.6,29.78,ESE,123,10.0,18.0,93,0.00,OVC,,0.13,WeatherDisplay:10.37,2013-03-31 21:15:00,
2013-03-31 17:30:00,48.4,46.7,29.78,ESE,118,10.0,18.0,94,0.00,OVC,,0.13,WeatherDisplay:10.37,2013-03-31 21:30:00,
2013-03-31 17:45:00,48.2,46.6,29.78,SE,130,9.0,11.0,94,0.00,OVC,,0.13,WeatherDisplay:10.37,2013-03-31 21:45:00,
2013-03-31 18:00:00,48.6,47.5,29.78,SE,136,7.0,9.0,96,0.00,OVC,,0.13,WeatherDisplay:10.37,2013-03-31 22:00:00,
2013-03-31 18:15:00,49.1,48.3,29.75,SE,138,6.0,9.0,97,0.00,OVC,,0.13,WeatherDisplay:10.37,2013-03-31 22:15:00,
2013-03-31 18:30:00,49.3,48.7,29.75,SSE,150,6.0,11.0,98,0.00,OVC,,0.13,WeatherDisplay:10.37,2013-03-31 22:30:00,
2013-03-31 18:45:00,49.8,49.6,29.75,SSW,192,5.0,8.0,99,0.00,OVC,,0.13,WeatherDisplay:10.37,2013-03-31 22:45:00,
2013-03-31 19:00:00,49.6,49.6,29.75,SW,223,3.0,8.0,100,0.00,OVC,,0.13,WeatherDisplay:10.37,2013-03-31 23:00:00,
2013-03-31 19:15:00,49.3,49.0,29.75,SSW,212,3.0,5.0,99,0.00,OVC,,0.13,WeatherDisplay:10.37,2013-03-31 23:15:00,
2013-03-31 19:30:00,49.3,49.0,29.75,SW,233,1.0,5.0,99,0.00,OVC,,0.13,WeatherDisplay:10.37,2013-03-31 23:30:00,
2013-03-31 19:45:00,49.8,49.8,29.72,SW,221,1.0,5.0,100,0.00,OVC,,0.13,WeatherDisplay:10.37,2013-03-31 23:45:00,
2013-03-31 20:00:00,50.0,50.0,29.72,SW,226,3.0,6.0,100,0.00,OVC,,0.13,WeatherDisplay:10.37,2013-04-01 00:00:00,
2013-03-31 20:15:00,50.2,50.2,29.72,SW,230,3.0,6.0,100,0.00,OVC,,0.13,WeatherDisplay:10.37,2013-04-01 00:15:00,
2013-03-31 20:30:00,50.4,50.4,29.75,WSW,243,5.0,7.0,100,0.00,OVC,,0.13,WeatherDisplay:10.37,2013-04-01 00:30:00,
2013-03-31 20:45:00,49.3,49.3,29.75,SW,235,8.0,12.0,100,0.00,OVC,,0.13,WeatherDisplay:10.37,2013-04-01 00:45:00,
2013-03-31 21:00:00,49.3,49.3,29.75,WSW,256,8.0,10.0,100,0.00,OVC,,0.13,WeatherDisplay:10.37,2013-04-01 01:00:00,
2013-03-31 21:15:00,49.5,49.5,29.75,WSW,253,8.0,11.0,100,0.00,OVC,,0.13,WeatherDisplay:10.37,2013-04-01 01:15:00,
2013-03-31 21:30:00,49.5,48.9,29.75,WSW,248,6.0,7.0,98,0.00,OVC,,0.13,WeatherDisplay:10.37,2013-04-01 01:30:00,
2013-03-31 21:45:00,49.5,48.6,29.75,WSW,256,5.0,7.0,97,0.00,OVC,,0.13,WeatherDisplay:10.37,2013-04-01 01:45:00,
2013-03-31 22:00:00,49.3,47.9,29.78,WSW,240,5.0,8.0,95,0.00,OVC,,0.13,WeatherDisplay:10.37,2013-04-01 02:00:00,
2013-03-31 22:15:00,49.1,47.2,29.78,West,259,5.0,9.0,93,0.00,OVC,,0.13,WeatherDisplay:10.37,2013-04-01 02:15:00,
2013-03-31 22:30:00,48.9,46.7,29.78,WSW,249,5.0,8.0,92,0.00,OVC,,0.13,WeatherDisplay:10.37,2013-04-01 02:30:00,
2013-03-31 22:45:00,49.1,46.9,29.78,SW,231,5.0,8.0,92,0.00,OVC,,0.13,WeatherDisplay:10.37,2013-04-01 02:45:00,
2013-03-31 23:00:00,48.9,46.4,29.78,WSW,253,5.0,8.0,91,0.00,OVC,,0.13,WeatherDisplay:10.37,2013-04-01 03:00:00,
2013-03-31 23:15:00,48.7,45.9,29.78,WSW,246,6.0,6.0,90,0.00,OVC,,0.13,WeatherDisplay:10.37,2013-04-01 03:15:00,
2013-03-31 23:30:00,48.6,45.8,29.78,WSW,256,6.0,8.0,90,0.00,OVC,,0.13,WeatherDisplay:10.37,2013-04-01 03:30:00,
2013-03-31 23:45:00,48.7,45.9,29.78,SW,231,5.0,6.0,90,0.00,OVC,,0.13,WeatherDisplay:10.37,2013-04-01 03:45:00,